| time (UTC) | temp F | wind direction | speed MPH | gust MPH | rain 1hr in | rain 24hr in | rain mn in | humidity % | barometer mb |
| 20260905213104 | 71 | 19 | 6.0 | 11.0 | 0.00 | 0.03 | 0.03 | 81 | 1017.4 |
| 20260905211559 | 71 | 61 | 5.0 | 13.0 | 0.00 | 0.03 | 0.03 | 81 | 1017.3 |
| 20260905210053 | 71 | 49 | 9.0 | 13.0 | 0.00 | 0.03 | 0.03 | 81 | 1017.6 |
| 20260905204555 | 72 | 44 | 7.0 | 12.0 | 0.00 | 0.03 | 0.03 | 81 | 1017.6 |
| 20260905203053 | 72 | 60 | 8.0 | 14.0 | 0.00 | 0.03 | 0.03 | 81 | 1017.5 |
| 20260905201618 | 72 | 63 | 6.0 | 13.0 | 0.00 | 0.03 | 0.03 | 80 | 1017.6 |
| 20260905200100 | 71 | 61 | 6.0 | 11.0 | 0.00 | 0.03 | 0.03 | 80 | 1017.7 |
| 20260905194551 | 71 | 49 | 8.0 | 12.0 | 0.00 | 0.03 | 0.03 | 80 | 1017.7 |
| 20260905193054 | 71 | 24 | 5.0 | 11.0 | 0.00 | 0.03 | 0.03 | 83 | 1017.6 |
| 20260905191547 | 71 | 16 | 6.0 | 11.0 | 0.00 | 0.03 | 0.03 | 82 | 1017.4 |
| 20260905190052 | 71 | 54 | 7.0 | 12.0 | 0.00 | 0.03 | 0.03 | 79 | 1017.4 |
| 20260905184555 | 71 | 21 | 5.0 | 9.0 | 0.00 | 0.03 | 0.03 | 80 | 1017.3 |
| 20260905183045 | 71 | 53 | 6.0 | 10.0 | 0.00 | 0.03 | 0.03 | 83 | 1017.8 |
| 20260905181607 | 71 | 22 | 4.0 | 9.0 | 0.00 | 0.03 | 0.03 | 84 | 1017.7 |
| 20260905180053 | 70 | 61 | 4.0 | 9.0 | 0.00 | 0.03 | 0.03 | 85 | 1017.8 |
| 20260905174551 | 70 | 104 | 3.0 | 7.0 | 0.00 | 0.03 | 0.03 | 87 | 1017.9 |
| 20260905173056 | 70 | 355 | 4.0 | 8.0 | 0.00 | 0.03 | 0.03 | 89 | 1018.1 |
| 20260905171556 | 69 | 42 | 3.0 | 7.0 | 0.00 | 0.03 | 0.03 | 91 | 1017.9 |
| 20260905170053 | 69 | 20 | 3.0 | 11.0 | 0.00 | 0.03 | 0.03 | 92 | 1018.0 |
| 20260905164545 | 69 | 59 | 5.0 | 10.0 | 0.00 | 0.03 | 0.03 | 91 | 1018.2 |
| 20260905163057 | 68 | 54 | 5.0 | 10.0 | 0.00 | 0.03 | 0.03 | 91 | 1018.3 |
| 20260905161602 | 68 | 49 | 6.0 | 11.0 | 0.00 | 0.03 | 0.03 | 92 | 1017.9 |
| 20260905160051 | 68 | 53 | 5.0 | 10.0 | 0.00 | 0.03 | 0.03 | 93 | 1017.7 |
| 20260905154616 | 68 | 71 | 6.0 | 11.0 | 0.00 | 0.03 | 0.03 | 93 | 1017.7 |
| 20260905153057 | 68 | 44 | 3.0 | 10.0 | 0.00 | 0.03 | 0.03 | 94 | 1017.7 |
| 20260905151600 | 68 | 94 | 3.0 | 9.0 | 0.00 | 0.03 | 0.03 | 94 | 1017.7 |
| 20260905150057 | 67 | 54 | 5.0 | 10.0 | 0.00 | 0.03 | 0.03 | 95 | 1017.5 |
| 20260905144555 | 67 | 22 | 4.0 | 9.0 | 0.00 | 0.03 | 0.03 | 96 | 1017.6 |
| 20260905143058 | 67 | 22 | 3.0 | 7.0 | 0.00 | 0.03 | 0.03 | 97 | 1017.5 |
| 20260905141558 | 67 | 57 | 3.0 | 7.0 | 0.00 | 0.03 | 0.03 | 98 | 1017.4 |
| 20260905140055 | 66 | 67 | 3.0 | 7.0 | 0.00 | 0.03 | 0.03 | 98 | 1017.5 |
| 20260905134554 | 66 | 96 | 2.0 | 4.0 | 0.00 | 0.03 | 0.03 | 99 | 1017.5 |
| 20260905133059 | 66 | 99 | 2.0 | 6.0 | 0.00 | 0.03 | 0.03 | 99 | 1017.4 |
| 20260905131607 | 66 | 107 | 3.0 | 7.0 | 0.00 | 0.03 | 0.03 | 99 | 1017.4 |
| 20260905130055 | 66 | 59 | 1.0 | 5.0 | 0.00 | 0.03 | 0.03 | 99 | 1017.2 |
| 20260905124600 | 66 | 82 | 3.0 | 6.0 | 0.00 | 0.03 | 0.03 | 99 | 1016.8 |
| 20260905123049 | 66 | 69 | 2.0 | 4.0 | 0.00 | 0.03 | 0.03 | 99 | 1016.8 |
| 20260905121559 | 66 | 71 | 2.0 | 6.0 | 0.00 | 0.03 | 0.03 | 99 | 1016.4 |
| 20260905120056 | 65 | 56 | 2.0 | 5.0 | 0.00 | 0.03 | 0.03 | 100 | 1016.3 |
| 20260905114554 | 65 | 58 | 3.0 | 6.0 | 0.00 | 0.03 | 0.03 | 99 | 1015.9 |
| 20260905113048 | 65 | 76 | 2.0 | 7.0 | 0.00 | 0.03 | 0.03 | 99 | 1015.9 |
| 20260905111601 | 65 | 62 | 3.0 | 8.0 | 0.00 | 0.03 | 0.03 | 100 | 1015.7 |
| 20260905110059 | 65 | 61 | 4.0 | 9.0 | 0.00 | 0.03 | 0.03 | 99 | 1015.6 |
| 20260905104610 | 65 | 65 | 3.0 | 8.0 | 0.00 | 0.03 | 0.03 | 99 | 1015.7 |
| 20260905103055 | 65 | 24 | 3.0 | 5.0 | 0.00 | 0.03 | 0.03 | 99 | 1015.8 |
| 20260905101552 | 65 | 58 | 2.0 | 5.0 | 0.00 | 0.03 | 0.03 | 99 | 1016.0 |
| 20260905100051 | 65 | 32 | 2.0 | 5.0 | 0.00 | 0.03 | 0.03 | 100 | 1016.0 |
| 20260905094555 | 65 | 13 | 2.0 | 8.0 | 0.00 | 0.08 | 0.03 | 100 | 1016.0 |
| 20260905093055 | 65 | 21 | 3.0 | 6.0 | 0.00 | 0.08 | 0.03 | 100 | 1016.0 |
| 20260905091607 | 65 | 9 | 3.0 | 7.0 | 0.01 | 0.08 | 0.03 | 99 | 1016.2 |
| 20260905090047 | 65 | 22 | 3.0 | 6.0 | 0.01 | 0.08 | 0.03 | 100 | 1016.2 |
| 20260905084606 | 65 | 19 | 3.0 | 7.0 | 0.01 | 0.12 | 0.03 | 99 | 1016.1 |
| 20260905083056 | 65 | 15 | 3.0 | 8.0 | 0.02 | 0.12 | 0.03 | 99 | 1016.1 |
| 20260905081552 | 65 | 18 | 4.0 | 8.0 | 0.01 | 0.11 | 0.02 | 99 | 1015.8 |
| 20260905080047 | 65 | 34 | 3.0 | 9.0 | 0.01 | 0.11 | 0.02 | 99 | 1016.0 |
| 20260905074556 | 65 | 20 | 3.0 | 7.0 | 0.02 | 0.12 | 0.02 | 99 | 1015.9 |
| 20260905073058 | 65 | 56 | 2.0 | 7.0 | 0.01 | 0.11 | 0.01 | 99 | 1015.9 |
| 20260905071554 | 65 | 47 | 1.0 | 6.0 | 0.01 | 0.11 | 0.01 | 99 | 1015.8 |
| 20260905070106 | 65 | 63 | 3.0 | 6.0 | 0.01 | 0.11 | 0.01 | 99 | 1015.6 |
| 20260905064555 | 65 | 62 | 3.0 | 9.0 | 0.00 | 0.10 | 0.00 | 98 | 1015.4 |
| 20260905063056 | 65 | 46 | 4.0 | 9.0 | 0.00 | 0.10 | 0.00 | 98 | 1015.6 |
| 20260905061611 | 65 | 46 | 4.0 | 9.0 | 0.00 | 0.10 | 0.00 | 98 | 1015.8 |
| 20260905060048 | 65 | 14 | 4.0 | 10.0 | 0.00 | 0.10 | 0.00 | 98 | 1015.7 |
| 20260905054602 | 65 | 57 | 4.0 | 11.0 | 0.00 | 0.12 | 0.00 | 97 | 1015.5 |
| 20260905053056 | 65 | 23 | 6.0 | 12.0 | 0.00 | 0.12 | 0.00 | 97 | 1015.4 |
| 20260905051554 | 65 | 44 | 5.0 | 12.0 | 0.00 | 0.12 | 0.00 | 97 | 1015.4 |
| 20260905050050 | 65 | 43 | 4.0 | 11.0 | 0.00 | 0.12 | 0.00 | 97 | 1015.4 |
| 20260905044558 | 65 | 51 | 3.0 | 9.0 | 0.00 | 0.27 | 0.12 | 98 | 1015.5 |
| 20260905043054 | 65 | 42 | 3.0 | 9.0 | 0.00 | 0.27 | 0.12 | 98 | 1015.4 |
| 20260905041557 | 65 | 11 | 3.0 | 11.0 | 0.00 | 0.27 | 0.12 | 98 | 1015.3 |
| 20260905040055 | 65 | 23 | 6.0 | 11.0 | 0.00 | 0.27 | 0.12 | 98 | 1015.3 |
| 20260905034558 | 65 | 15 | 5.0 | 11.0 | 0.00 | 0.32 | 0.12 | 97 | 1015.3 |
| 20260905033057 | 65 | 360 | 5.0 | 10.0 | 0.00 | 0.32 | 0.12 | 97 | 1015.5 |
| 20260905031553 | 65 | 12 | 6.0 | 10.0 | 0.00 | 0.32 | 0.12 | 97 | 1015.6 |
| 20260905030059 | 65 | 38 | 4.0 | 10.0 | 0.00 | 0.32 | 0.12 | 97 | 1015.5 |
| 20260905024559 | 65 | 26 | 5.0 | 10.0 | 0.00 | 0.32 | 0.12 | 97 | 1015.5 |
| 20260905023054 | 65 | 360 | 4.0 | 10.0 | 0.00 | 0.32 | 0.12 | 97 | 1015.4 |
| 20260905021557 | 65 | 18 | 3.0 | 8.0 | 0.00 | 0.32 | 0.12 | 97 | 1015.3 |
| 20260905020059 | 65 | 19 | 4.0 | 9.0 | 0.00 | 0.32 | 0.12 | 97 | 1015.2 |
| 20260905014546 | 65 | 16 | 3.0 | 8.0 | 0.00 | 0.32 | 0.12 | 97 | 1015.3 |
| 20260905013100 | 65 | 360 | 3.0 | 8.0 | 0.00 | 0.32 | 0.12 | 97 | 1015.1 |
| 20260905011602 | 65 | 5 | 2.0 | 9.0 | 0.00 | 0.32 | 0.12 | 97 | 1014.9 |
| 20260905010106 | 66 | 5 | 3.0 | 10.0 | 0.00 | 0.32 | 0.12 | 97 | 1014.7 |
| 20260905004551 | 65 | 30 | 4.0 | 10.0 | 0.00 | 0.32 | 0.12 | 97 | 1014.6 |
| 20260905003059 | 65 | 16 | 5.0 | 10.0 | 0.00 | 0.32 | 0.12 | 97 | 1014.7 |
| 20260905001554 | 65 | 18 | 4.0 | 11.0 | 0.00 | 0.32 | 0.12 | 97 | 1014.6 |
| 20260905000051 | 65 | 5 | 4.0 | 9.0 | 0.00 | 0.32 | 0.12 | 96 | 1014.4 |
| 20260904234551 | 66 | 35 | 3.0 | 11.0 | 0.00 | 0.32 | 0.12 | 96 | 1014.4 |
| 20260904233055 | 66 | 59 | 5.0 | 9.0 | 0.00 | 0.32 | 0.12 | 96 | 1014.3 |
| 20260904231556 | 65 | 48 | 6.0 | 11.0 | 0.00 | 0.32 | 0.12 | 96 | 1014.3 |
| 20260904224603 | 66 | 18 | 5.0 | 9.0 | 0.00 | 0.32 | 0.12 | 95 | 1014.4 |
| 20260904223048 | 66 | 23 | 2.0 | 9.0 | 0.00 | 0.32 | 0.12 | 96 | 1014.2 |
| 20260904221557 | 66 | 22 | 3.0 | 11.0 | 0.00 | 0.32 | 0.12 | 95 | 1014.1 |
| 20260904220056 | 66 | 61 | 6.0 | 12.0 | 0.00 | 0.32 | 0.12 | 94 | 1014.1 |
| 20260904214557 | 67 | 54 | 5.0 | 11.0 | 0.00 | 0.32 | 0.12 | 94 | 1014.1 |